When you browse on this site, cookies collect data to enhance your experience and personalize the content and advertising you see.
Visit our Privacy Policy to learn more. By continuing to use the site, you agree to this use of cookies and data.
  • în România
  • Lista ţărilor
  • Pe 7 zile
  • Temperatura apei
  • Meteo pe hartă
  • Widget-uri
  • user-avatar
    Intrare

    Meteo pe oră la Madang

    Astăzi, 6 Iunie, Sâmbătă

    Timp Temperatura Precipitaţii Vânt Presiune Umiditate
    00:00 +27°C° 1.8 mm 1 m/s 758 mmHg 92%
    01:00 +26°C° 1.8 mm 1 m/s 758 mmHg 94%
    02:00 +26°C° 0.6 mm 1 m/s 758 mmHg 94%
    03:00 +26°C° 0.6 mm 1 m/s 757 mmHg 94%
    04:00 +26°C° 0 mm 1 m/s 757 mmHg 94%
    05:00 +26°C° 0 mm 1 m/s 757 mmHg 93%
    06:00 +26°C° 0 mm 1 m/s 757 mmHg 93%
    07:00 +26°C° 0 mm 2 m/s 757 mmHg 92%
    08:00 +28°C° 0 mm 1 m/s 757 mmHg 83%
    09:00 +30°C° 0 mm 1 m/s 758 mmHg 74%
    10:00 +33°C° 0 mm 1 m/s 757 mmHg 65%
    11:00 +33°C° 0 mm 1 m/s 757 mmHg 64%
    12:00 +33°C° 0 mm 1 m/s 756 mmHg 62%
    13:00 +34°C° 0 mm 2 m/s 755 mmHg 61%
    14:00 +34°C° 0.1 mm 2 m/s 755 mmHg 64%
    15:00 +32°C° 0.1 mm 2 m/s 755 mmHg 66%
    16:00 +32°C° 0.1 mm 2 m/s 755 mmHg 69%
    17:00 +30°C° 0.2 mm 2 m/s 755 mmHg 75%
    18:00 +29°C° 0.2 mm 2 m/s 756 mmHg 81%
    19:00 +28°C° 0.2 mm 2 m/s 757 mmHg 87%
    20:00 +28°C° 1.1 mm 1 m/s 757 mmHg 88%
    21:00 +27°C° 1.1 mm 1 m/s 758 mmHg 89%
    22:00 +27°C° 1.1 mm 1 m/s 758 mmHg 91%
    23:00 +27°C° 1 mm 1 m/s 758 mmHg 92%

    Mâine, 7 Iunie, Duminică

    Timp Temperatura Precipitaţii Vânt Presiune Umiditate
    00:00 +27°C° 1 mm 1 m/s 757 mmHg 92%
    01:00 +26°C° 1 mm 1 m/s 757 mmHg 93%
    02:00 +26°C° 0.5 mm 1 m/s 757 mmHg 94%
    03:00 +26°C° 0.5 mm 1 m/s 757 mmHg 94%
    04:00 +26°C° 0.5 mm 1 m/s 757 mmHg 95%
    05:00 +26°C° 0.4 mm 1 m/s 757 mmHg 94%
    06:00 +26°C° 0.4 mm 1 m/s 757 mmHg 93%
    07:00 +26°C° 0.4 mm 2 m/s 757 mmHg 93%
    08:00 +28°C° 0.1 mm 1 m/s 758 mmHg 83%
    09:00 +31°C° 0.1 mm 1 m/s 758 mmHg 72%
    10:00 +33°C° 0.1 mm 1 m/s 758 mmHg 62%
    11:00 +33°C° 0.1 mm 1 m/s 757 mmHg 61%
    12:00 +33°C° 0.1 mm 1 m/s 756 mmHg 60%
    13:00 +35°C° 0.1 mm 2 m/s 756 mmHg 60%
    14:00 +34°C° 0.2 mm 2 m/s 755 mmHg 63%
    15:00 +32°C° 0.2 mm 2 m/s 755 mmHg 67%
    16:00 +32°C° 0.2 mm 2 m/s 755 mmHg 70%
    17:00 +30°C° 0.4 mm 2 m/s 755 mmHg 76%
    18:00 +29°C° 0.4 mm 2 m/s 756 mmHg 82%
    19:00 +28°C° 0.4 mm 2 m/s 756 mmHg 88%
    20:00 +28°C° 0.7 mm 2 m/s 757 mmHg 89%
    21:00 +28°C° 0.7 mm 2 m/s 757 mmHg 89%
    22:00 +27°C° 0.7 mm 2 m/s 758 mmHg 90%
    23:00 +27°C° 0.3 mm 2 m/s 758 mmHg 91%

    Poimâine, 8 Iunie, Luni

    Timp Temperatura Precipitaţii Vânt Presiune Umiditate
    00:00 +27°C° 0.3 mm 2 m/s 757 mmHg 91%
    01:00 +27°C° 0.3 mm 1 m/s 757 mmHg 92%
    02:00 +27°C° 0.1 mm 1 m/s 757 mmHg 92%
    03:00 +27°C° 0.1 mm 1 m/s 757 mmHg 92%
    04:00 +27°C° 0.1 mm 1 m/s 757 mmHg 92%
    05:00 +27°C° 0.1 mm 1 m/s 757 mmHg 92%
    06:00 +27°C° 0.1 mm 1 m/s 757 mmHg 92%
    07:00 +27°C° 0.1 mm 1 m/s 758 mmHg 92%
    08:00 +28°C° 0 mm 1 m/s 757 mmHg 85%
    09:00 +30°C° 0 mm 1 m/s 757 mmHg 78%
    10:00 +32°C° 0 mm 1 m/s 757 mmHg 71%
    11:00 +32°C° 0.1 mm 2 m/s 757 mmHg 69%
    12:00 +34°C° 0.1 mm 2 m/s 756 mmHg 67%
    13:00 +34°C° 0.1 mm 3 m/s 756 mmHg 66%
    14:00 +33°C° 0.3 mm 3 m/s 755 mmHg 69%
    15:00 +33°C° 0.3 mm 3 m/s 755 mmHg 72%
    16:00 +32°C° 0.3 mm 4 m/s 755 mmHg 76%
    17:00 +30°C° 1.3 mm 3 m/s 755 mmHg 81%
    18:00 +29°C° 1.3 mm 3 m/s 756 mmHg 86%
    19:00 +28°C° 1.3 mm 3 m/s 756 mmHg 92%
    20:00 +28°C° 1.7 mm 3 m/s 757 mmHg 92%
    21:00 +28°C° 1.7 mm 3 m/s 757 mmHg 93%
    22:00 +28°C° 1.7 mm 3 m/s 758 mmHg 93%
    23:00 +28°C° 3.4 mm 3 m/s 758 mmHg 93%

    9 Iunie, Marţi

    Timp Temperatura Precipitaţii Vânt Presiune Umiditate
    00:00 +27°C° 3.4 mm 3 m/s 757 mmHg 93%
    01:00 +27°C° 3.4 mm 3 m/s 757 mmHg 92%
    02:00 +27°C° 3.2 mm 2 m/s 757 mmHg 93%
    03:00 +27°C° 3.2 mm 2 m/s 757 mmHg 93%
    04:00 +27°C° 3.2 mm 2 m/s 757 mmHg 93%
    05:00 +27°C° 2.5 mm 2 m/s 757 mmHg 93%
    06:00 +27°C° 2.5 mm 2 m/s 758 mmHg 94%
    07:00 +27°C° 2.5 mm 2 m/s 758 mmHg 94%
    08:00 +27°C° 2.1 mm 2 m/s 758 mmHg 93%
    09:00 +28°C° 2.1 mm 2 m/s 759 mmHg 92%
    10:00 +28°C° 2.1 mm 3 m/s 759 mmHg 91%
    11:00 +29°C° 1 mm 2 m/s 758 mmHg 90%
    12:00 +29°C° 1.1 mm 1 m/s 758 mmHg 89%
    13:00 +27°C° 1 mm 0 m/s 757 mmHg 89%
    14:00 +27°C° 0.2 mm 0 m/s 757 mmHg 88%
    15:00 +27°C° 0.2 mm 0 m/s 757 mmHg 87%
    16:00 +27°C° 0.2 mm 0 m/s 756 mmHg 86%
    17:00 +29°C° 0.1 mm 1 m/s 757 mmHg 88%
    18:00 +28°C° 0.1 mm 1 m/s 757 mmHg 89%
    19:00 +28°C° 0.1 mm 1 m/s 757 mmHg 91%
    20:00 +27°C° 0 mm 1 m/s 758 mmHg 92%
    21:00 +27°C° 0 mm 1 m/s 758 mmHg 92%
    22:00 +27°C° 0 mm 1 m/s 759 mmHg 93%
    23:00 +27°C° 0 mm 1 m/s 759 mmHg 93%

    10 Iunie, Miercuri

    Timp Temperatura Precipitaţii Vânt Presiune Umiditate
    00:00 +26°C° 0 mm 1 m/s 758 mmHg 93%
    01:00 +26°C° 0 mm 1 m/s 758 mmHg 93%
    02:00 +26°C° 0.1 mm 2 m/s 758 mmHg 93%
    03:00 +26°C° 0.1 mm 2 m/s 758 mmHg 93%
    04:00 +26°C° 0.1 mm 2 m/s 757 mmHg 93%
    05:00 +26°C° 0.1 mm 2 m/s 758 mmHg 93%
    06:00 +26°C° 0.1 mm 2 m/s 758 mmHg 92%
    07:00 +26°C° 0.1 mm 2 m/s 758 mmHg 92%
    08:00 +28°C° 0 mm 2 m/s 758 mmHg 82%
    09:00 +31°C° 0 mm 1 m/s 758 mmHg 72%
    10:00 +33°C° 0 mm 1 m/s 758 mmHg 62%
    11:00 +33°C° 0 mm 1 m/s 757 mmHg 61%
    12:00 +35°C° 0 mm 2 m/s 757 mmHg 60%
    13:00 +35°C° 0 mm 2 m/s 756 mmHg 59%
    14:00 +34°C° 0 mm 2 m/s 756 mmHg 64%
    15:00 +32°C° 0 mm 2 m/s 755 mmHg 69%
    16:00 +33°C° 0 mm 3 m/s 755 mmHg 74%
    17:00 +30°C° 0.1 mm 2 m/s 756 mmHg 79%
    18:00 +29°C° 0.1 mm 2 m/s 756 mmHg 84%
    19:00 +28°C° 0.1 mm 1 m/s 757 mmHg 90%
    20:00 +28°C° 0 mm 1 m/s 757 mmHg 90%
    21:00 +27°C° 0 mm 1 m/s 758 mmHg 91%
    22:00 +27°C° 0 mm 1 m/s 758 mmHg 92%
    23:00 +27°C° 0.6 mm 1 m/s 758 mmHg 93%

    11 Iunie, Joi

    Timp Temperatura Precipitaţii Vânt Presiune Umiditate
    00:00 +27°C° 0.6 mm 1 m/s 758 mmHg 94%
    01:00 +27°C° 0.6 mm 1 m/s 758 mmHg 95%
    02:00 +26°C° 0.7 mm 1 m/s 758 mmHg 95%
    03:00 +26°C° 0.7 mm 1 m/s 757 mmHg 94%
    04:00 +26°C° 0.7 mm 1 m/s 757 mmHg 94%
    05:00 +26°C° 0.1 mm 1 m/s 757 mmHg 94%
    06:00 +26°C° 0.1 mm 1 m/s 758 mmHg 94%
    07:00 +26°C° 0.1 mm 2 m/s 758 mmHg 94%
    08:00 +28°C° 0 mm 1 m/s 758 mmHg 84%
    09:00 +30°C° 0 mm 1 m/s 758 mmHg 75%
    10:00 +33°C° 0 mm 1 m/s 758 mmHg 66%
    11:00 +33°C° 0.1 mm 1 m/s 757 mmHg 67%
    12:00 +34°C° 0.1 mm 2 m/s 757 mmHg 67%
    13:00 +34°C° 0.1 mm 2 m/s 756 mmHg 68%
    14:00 +32°C° 0.3 mm 2 m/s 756 mmHg 72%
    15:00 +31°C° 0.3 mm 2 m/s 755 mmHg 76%
    16:00 +31°C° 0.3 mm 2 m/s 755 mmHg 80%
    17:00 +30°C° 0.1 mm 2 m/s 755 mmHg 83%
    18:00 +29°C° 0.1 mm 2 m/s 756 mmHg 87%
    19:00 +28°C° 0.1 mm 2 m/s 756 mmHg 90%
    20:00 +28°C° 0.1 mm 2 m/s 757 mmHg 91%
    21:00 +27°C° 0.1 mm 1 m/s 758 mmHg 91%
    22:00 +27°C° 0.1 mm 1 m/s 758 mmHg 92%
    23:00 +27°C° 0.3 mm 1 m/s 758 mmHg 92%
    Arată mai mult